Location: Cranbrook Institute of Science
(42.5830°N, 83.2450°W)
Time: 21:31:24
(UTC-04:00)

Daily predictions for brighter satellites

Satellite Brightness Start Highest point End
(mag) Time Altitude Azimuth Time Altitude Azimuth Time Altitude Azimuth
Cosmos 1821 Rocket 4.1 20:42:42 10° SSE 20:48:36 54° E 20:54:31 10° NNE
ATLAS CENTAUR R/B 2.3 20:43:41 10° SW 20:48:42 67° NW 20:53:38 10° NNE
Okean 1-7 Rocket 4.5 20:46:52 10° NNW 20:51:09 53° W 20:55:25 10° S
ALOS 2.3 20:50:57 10° SSE 20:55:36 75° ENE 21:00:17 10° N
Cosmos 1939 Rocket 4.5 20:53:58 10° ESE 20:56:59 20° ENE 21:00:01 10° NNE
Lacrosse 5 3.8 20:54:39 10° NNW 20:58:20 20° NNE 21:02:02 10° ENE
NOSS 3-4 (A) 4.1 20:51:46 10° NNW 20:58:39 58° NE 21:05:55 10° SE
NOSS 3-4 (C) 4.1 20:51:53 10° NNW 20:58:46 57° NE 21:06:02 10° SE
Meteor 1-23 Rocket 4.2 20:53:08 10° N 20:58:47 74° E 21:04:27 10° SSE
H-2A R/B 2.7 20:57:56 10° SSE 21:01:46 71° ENE 21:05:40 10° N
Cosmos 1570 Rocket 4.4 20:57:42 10° S 21:02:40 42° ESE 21:07:38 10° NNE
Cosmos 2369 4.4 21:00:42 10° SSE 21:05:39 32° ESE 21:10:38 10° NE
Envisat 3.9 21:08:01 10° SE 21:12:23 31° ENE 21:16:49 10° N
DELTA 2 R/B (1) 3.7 21:07:53 10° WSW 21:13:24 65° S 21:18:27 12° E
CZ-2D R/B 3.5 21:11:02 10° S 21:14:53 72° W 21:18:46 10° NNW
Cosmos 2123 Rocket 4.0 21:12:25 10° N 21:18:36 68° E 21:24:43 10° SSE
Hubble Space Telescope 3.1 21:18:32 10° SSW 21:19:42 11° S 21:20:51 10° SSE
Cosmos 1536 3.9 21:16:43 10° SSW 21:20:35 47° WNW 21:24:30 10° N
Cosmos 1346 Rocket 2.7 21:19:38 10° N 21:23:35 73° E 21:27:31 10° SSE
CZ-4 DEB 2.6 21:30:12 17° SSE 21:32:31 67° ENE 21:35:40 10° N
deb Chang Zheng 4 4.5 21:29:30 10° NE 21:33:25 29° E 21:35:52 18° SE
H-2A R/B 2.8 21:32:16 20° ESE 21:34:17 32° ENE 21:37:58 10° N
NOSS 7 (E) 4.4 21:31:14 10° SSW 21:34:44 59° ESE 21:38:05 10° NE
Cosmos 1892 Rocket 4.3 21:30:54 10° NNW 21:35:17 55° W 21:39:39 10° S
Iridium 4 Rocket 3.5 21:32:55 10° N 21:38:08 57° E 21:42:11 14° SSE
Cosmos 1626 Rocket 3.7 21:33:48 10° N 21:38:09 55° E 21:41:12 19° SSE
Cosmos 2227 Rocket 2.2 21:36:36 10° NNW 21:42:18 78° ENE 21:46:32 18° SSE
Cosmos 1455 Rocket 3.3 21:38:39 10° SSW 21:42:57 70° W 21:47:18 10° N
Tiangong 1 0.9 21:40:47 10° WSW 21:43:52 78° S 21:45:06 33° E
Meteor 1-5 Rocket 4.5 21:39:35 10° SSW 21:44:51 67° WNW 21:50:18 10° N
Cosmos 1153 Rocket 4.5 21:39:23 10° S 21:45:29 61° E 21:51:33 10° NNE
Cosmos 1602 Rocket 3.5 21:41:11 10° N 21:45:40 67° E 21:48:43 20° SSE
Cosmos 1898 Rocket 4.2 21:42:56 10° N 21:47:57 39° ENE 21:50:22 25° ESE
Cosmos 1500 3.6 21:50:01 32° SE 21:51:03 40° E 21:54:36 10° NNE
ERS-1 Rocket 2.9 21:47:20 13° SSE 21:51:47 87° WSW 21:56:50 10° NNW
Cosmos 2082 3.6 21:48:27 10° NNW 21:54:07 90° ENE 21:57:54 22° SSE
USA 186 4.1 21:51:39 10° SSW 21:54:12 22° W 21:56:39 10° NW
Terra 3.9 21:56:54 11° ENE 21:57:33 12° ENE 21:59:10 10° NE
OAO 2 Rocket 4.3 21:53:30 10° SW 21:57:43 27° SSE 21:58:17 26° SSE
Cosmos 2297 Rocket 2.1 21:52:41 10° NNW 21:58:22 76° ENE 22:01:34 27° SSE
EP 1 4.1 21:56:36 10° SW 21:59:06 78° NW 22:01:44 10° NNE
OTV 4 1.6 21:57:06 10° WSW 21:59:29 30° SSW 21:59:29 30° SSW
Cosmos 1447 Rocket 4.5 21:53:45 10° N 22:00:06 82° E 22:05:16 16° S
Cosmos 1656 3.8 21:55:52 10° S 22:01:18 52° ESE 22:06:42 10° NE
Cosmos 1975 2.9 21:59:25 10° S 22:03:30 84° W 22:07:39 10° N
Cosmos 1461 2.8 22:00:48 10° NW 22:04:52 73° WSW 22:06:17 38° SSE
Cosmos 1340 3.9 22:05:11 10° NNE 22:08:04 26° ENE 22:08:04 26° ENE
Cosmos 1515 3.7 22:08:16 10° N 22:12:08 84° W 22:13:24 41° S
Cosmos 468 Rocket 4.1 22:09:55 29° SSE 22:12:14 50° ESE 22:17:11 10° NNE
Lacrosse 5 rocket 0.8 22:13:22 10° NW 22:17:05 82° NE 22:17:23 72° ESE
Cosmos 1814 Rocket 4.2 22:16:31 37° SSE 22:18:05 48° ESE 22:23:13 10° NNE
Cosmos 1743 3.1 22:19:32 46° ENE 22:19:32 46° ENE 22:22:52 10° NNE
Cosmos 2016 Rocket 4.2 22:19:13 36° SE 22:21:11 48° E 22:27:03 10° NNE
Cosmos 1606 Rocket 4.2 22:21:42 38° ENE 22:21:42 38° ENE 22:25:20 10° NNE
Cosmos 220 Rocket 4.1 22:19:20 10° NNW 22:23:33 67° WSW 22:24:43 44° S
Cosmos 2084 3.6 22:20:04 10° NNW 22:24:02 54° NE 22:24:26 51° ENE
Cosmos 1066 Rocket 4.2 22:20:24 10° N 22:26:02 86° W 22:28:48 32° S
USA 215 3.5 22:26:30 32° E 22:29:36 61° NNE 22:36:01 10° NW
Cosmos 1939 Rocket 4.3 22:29:23 20° SSW 22:31:40 35° W 22:35:31 10° NNW
Cosmos 2298 Rocket 4.0 22:26:25 10° NNW 22:31:45 81° WSW 22:33:29 44° S
BREEZE-M DEB (TANK) 4.3 22:28:22 10° WNW 22:32:24 69° NNE 22:38:25 27° ESE
Milstar 3 Cent rocket 4.2 22:17:25 10° WSW 22:34:11 41° SSW 22:38:08 32° SSE
Cosmos 2173 Rocket 3.9 22:30:10 23° S 22:34:21 84° E 22:40:44 10° N
YAOGAN 6 2.6 22:34:50 81° WNW 22:34:50 81° WNW 22:38:25 10° NNW
Cosmos 858 Rocket 4.4 22:30:07 10° NNW 22:35:26 89° ENE 22:36:45 52° SSE
Cosmos 2061 Rocket 3.9 22:32:02 24° S 22:36:08 86° E 22:42:26 10° N
MetOp-A 4.2 22:36:45 40° S 22:38:45 76° WSW 22:44:08 10° NNW
Cosmos 1697 Rocket 2.5 22:35:31 20° SSW 22:39:35 79° ESE 22:45:16 10° NNE
GEOS 3 Rocket 3.5 22:35:39 10° NE 22:40:44 61° ESE 22:41:24 56° SSE
SL-16 R/B 4.4 22:44:19 11° ENE 22:44:19 11° ENE 22:44:29 10° ENE
H-2A R/B 2.7 22:41:13 36° ENE 22:41:13 36° ENE 22:45:41 10° N
Cosmos 2100 Rocket 4.0 22:36:42 18° SSW 22:41:30 80° W 22:47:47 10° N
Lacrosse 5 2.1 22:37:16 10° NW 22:42:16 56° NE 22:43:01 51° ENE
Tsikada Rocket 4.3 22:37:29 10° N 22:43:43 49° ENE 22:44:43 45° ESE
Cosmos 2098 Rocket 4.2 22:42:50 45° SE 22:44:40 57° E 22:50:48 10° NNE
SPOT 5 3.4 22:42:57 36° SSW 22:44:50 58° W 22:49:43 10° NNW
NOAA 11 4.1 22:44:16 57° SE 22:45:22 77° ENE 22:50:52 10° N
Cosmos 1726 Rocket 4.0 22:47:06 51° NE 22:47:06 51° NE 22:50:36 10° NNE
Envisat 4.4 22:48:14 18° SSW 22:51:20 32° W 22:55:53 10° NNW
Cosmos 1937 Rocket 3.5 22:52:32 10° NNW 22:57:47 73° WSW 22:58:26 64° SSW
Cosmos 1825 Rocket 3.9 22:53:46 10° NNW 22:58:09 60° W 22:58:19 60° WSW
Cosmos 2150 Rocket 4.5 22:54:18 10° NNW 22:59:17 52° WSW 23:00:15 45° SW
DELTA 2 R/B (1) 3.9 22:54:13 10° W 22:59:12 51° SSW 22:59:12 51° SSW
SPOT 1/Viking Rocket 3.6 22:58:58 63° SSW 22:59:44 75° WSW 23:04:59 10° NNW
Cosmos 1980 Rocket 2.0 23:00:44 72° ESE 23:00:45 72° ESE 23:06:27 10° NNE
RESURS DK-1 2.9 22:56:57 10° NNW 23:00:21 58° NNW 23:00:21 58° NNW
Meteor 1-21 4.3 22:57:02 10° NNW 23:02:47 76° W 23:03:55 58° SSW
SL-19 R/B 4.3 22:58:20 10° NNE 23:03:54 74° WNW 23:05:31 46° SW
Cosmos 1953 Rocket 3.9 23:01:22 10° NNW 23:05:27 66° WNW 23:05:27 66° WNW
ARGOS 3.2 23:08:12 62° SW 23:08:51 68° WSW 23:14:14 10° NNW
CZ-4C R/B 4.3 23:10:16 47° NNE 23:10:16 47° NNE 23:13:39 10° N
H-2A R/B 4.0 23:09:24 19° WSW 23:10:22 21° W 23:13:30 10° NW
Cosmos 1816 Rocket 4.4 23:08:44 10° N 23:15:06 67° E 23:15:22 66° E
Cosmos 990 Rocket 4.1 23:11:41 10° NNW 23:16:52 67° WSW 23:16:52 67° WSW
Cosmos 1725 Rocket 3.8 23:17:03 72° S 23:17:45 89° ESE 23:24:01 10° N
ASTEX 1 4.5 23:13:33 10° N 23:18:16 42° WNW 23:19:42 34° WSW
CZ-4 R/B 4.2 23:14:03 10° NNE 23:17:56 60° N 23:17:56 60° N
Landsat 7 4.1 23:19:55 64° NNW 23:19:55 64° NNW 23:23:58 10° NNW
CZ-4B R/B 3.8 23:20:22 10° N 23:24:59 57° WNW 23:24:59 57° WNW
Cosmos 2322 Rocket 3.6 23:33:40 27° NE 23:33:40 27° NE 23:36:16 10° NE
Cosmos 2263 Rocket 3.3 23:26:37 10° N 23:31:08 32° NE 23:31:08 32° NE
Cosmos 2360 4.4 23:32:34 65° NNE 23:32:34 65° NNE 23:37:25 10° NNE
Terra 2.5 23:35:48 51° NNW 23:35:48 51° NNW 23:39:21 10° NNW
Cosmos 1125 Rocket 4.0 23:31:08 10° NNW 23:35:17 56° N 23:35:17 56° N
Meteor 2-9 Rocket 4.5 23:39:03 62° WNW 23:39:03 62° WNW 23:44:27 10° N
Cosmos 2297 Rocket 4.4 23:38:33 10° WNW 23:41:40 15° W 23:43:24 13° WSW
Cosmos 2058 Rocket 4.5 23:44:03 37° NW 23:44:03 37° NW 23:47:31 10° N
Cosmos 1763 Rocket 4.2 23:45:16 49° NW 23:45:16 49° NW 23:49:58 10° N
Cosmos 2233 Rocket 4.0 23:48:31 77° N 23:48:31 77° N 23:54:17 10° N
